map of VTE home
VTE - Airport
Location
City:  Vientiane, Lao People's Democratic Republic (Laos)
Name:Wattay International Airport
ICAO:VLVT
IATA:VTE

Details
Type:Airport (Aerodrome, Airfield)
Use:Public/Civil, Military, International (customs port of entry)
Latitude:1759'18"N (17.988322)
Longitude:10233'48"E (102.563256)
Datum:WGS 1984
Elevation:564 ft (172 m)
Variation:0.91W (WMM2015 magnetic declination)
-0.01 annual change
Runways:1
Longest:9843 × 148 ft (3000 × 45 m), paved

Time
Time Zone:UTC+7
Local Time:

Weather
METAR:VLVT 191430Z 00000KT 4000 BR NSC 21/19 Q1016 NOSIG
TAF:VLVT 191100Z 1912/2012 06004KT 8000 FEW020 FEW200
TEMPO 1914/1920 4000 BR FEW050

Related Locations
Nearby:
Farthest:SJA: 12200 mi / 19634 km
San Juan de Marcona [San Juan de Marcona Airport], ICA, PE

Find:

   beyond  
but within

Other Information
Maps:
NOTAMs:
Links:
Sources:

  
  • flag of Lao People's Democratic Republic (Laos)
  

Sectional Chart

Flight Planning
at skyvector.com

Satellite Image

Google Maps Satellite view

 

Copyright © 2004-2018 Karl L. Swartz. All rights reserved.
The Great Circle Mapper name and logo are trademarks of the Great Circle Mapper.
All other trademarks mentioned herein belong to their respective owners.
Please see credits for attibutions and further copyright information.

  Follow gcmap on Facebook Follow gcmap on Twitter Follow gcmap on Google+ GCmap on LinkedIn

hCard Microformat

Geo Microformat